| time (UTC) | temp F | wind direction | speed MPH | gust MPH | rain 1hr in | rain 24hr in | rain mn in | humidity % | barometer mb |
| 20260506135018 | 59 | 0.0 | 0.0 | 0.00 | 0.00 | 0.00 | 50 | 1014.9 | |
| 20260506134017 | 58 | 0.0 | 0.0 | 0.00 | 0.00 | 0.00 | 52 | 1014.9 | |
| 20260506133017 | 56 | 188 | 0.0 | 0.0 | 0.00 | 0.00 | 0.00 | 54 | 1014.8 |
| 20260506132018 | 56 | 0.0 | 0.0 | 0.00 | 0.00 | 0.00 | 54 | 1014.7 | |
| 20260506131018 | 54 | 195 | 1.0 | 2.0 | 0.00 | 0.00 | 0.00 | 56 | 1014.7 |
| 20260506130017 | 54 | 176 | 3.0 | 4.0 | 0.00 | 0.00 | 0.00 | 57 | 1014.6 |
| 20260506125016 | 54 | 170 | 1.0 | 2.0 | 0.00 | 0.00 | 0.00 | 56 | 1014.4 |
| 20260506124017 | 54 | 0.0 | 0.0 | 0.00 | 0.00 | 0.00 | 55 | 1014.3 | |
| 20260506123017 | 54 | 176 | 1.0 | 2.0 | 0.00 | 0.00 | 0.00 | 56 | 1014.2 |
| 20260506122019 | 55 | 169 | 0.0 | 0.0 | 0.00 | 0.00 | 0.00 | 55 | 1014.1 |
| 20260506121717 | 55 | 169 | 1.0 | 2.0 | 0.00 | 0.00 | 0.00 | 55 | 1014.1 |
| 20260506120716 | 55 | 0.0 | 0.0 | 0.00 | 0.00 | 0.00 | 55 | 1014.1 | |
| 20260506115717 | 55 | 0.0 | 0.0 | 0.00 | 0.00 | 0.00 | 54 | 1014.1 | |
| 20260506114916 | 55 | 0.0 | 0.0 | 0.00 | 0.00 | 0.00 | 54 | 1014.0 | |
| 20260506113917 | 55 | 0.0 | 0.0 | 0.00 | 0.00 | 0.00 | 56 | 1014.0 | |
| 20260506112929 | 56 | 0.0 | 0.0 | 0.00 | 0.00 | 0.00 | 56 | 1014.0 | |
| 20260506111917 | 57 | 0.0 | 0.0 | 0.00 | 0.00 | 0.00 | 53 | 1013.9 | |
| 20260506110916 | 56 | 0.0 | 0.0 | 0.00 | 0.00 | 0.00 | 57 | 1013.8 | |
| 20260506105917 | 57 | 0.0 | 0.0 | 0.00 | 0.00 | 0.00 | 52 | 1013.7 | |
| 20260506104917 | 57 | 0.0 | 0.0 | 0.00 | 0.00 | 0.00 | 52 | 1013.7 | |
| 20260506103916 | 59 | 0.0 | 0.0 | 0.00 | 0.00 | 0.00 | 50 | 1013.6 | |
| 20260506102917 | 60 | 247 | 2.0 | 3.0 | 0.00 | 0.00 | 0.00 | 48 | 1013.5 |
| 20260506102617 | 60 | 251 | 3.0 | 4.0 | 0.00 | 0.00 | 0.00 | 48 | 1013.5 |
| 20260506101617 | 60 | 259 | 2.0 | 3.0 | 0.00 | 0.00 | 0.00 | 48 | 1013.5 |
| 20260506100617 | 60 | 298 | 3.0 | 4.0 | 0.00 | 0.00 | 0.00 | 48 | 1013.4 |
| 20260506095616 | 60 | 292 | 4.0 | 6.0 | 0.00 | 0.00 | 0.00 | 47 | 1013.4 |
| 20260506094617 | 60 | 285 | 2.0 | 4.0 | 0.00 | 0.00 | 0.00 | 46 | 1013.5 |
| 20260506093617 | 60 | 285 | 3.0 | 4.0 | 0.00 | 0.00 | 0.00 | 46 | 1013.4 |
| 20260506092617 | 60 | 327 | 3.0 | 4.0 | 0.00 | 0.00 | 0.00 | 45 | 1013.5 |
| 20260506091616 | 61 | 311 | 3.0 | 4.0 | 0.00 | 0.00 | 0.00 | 45 | 1013.5 |
| 20260506090616 | 61 | 312 | 4.0 | 5.0 | 0.00 | 0.00 | 0.00 | 44 | 1013.4 |
| 20260506085617 | 61 | 0.0 | 0.0 | 0.00 | 0.00 | 0.00 | 45 | 1013.5 | |
| 20260506084617 | 60 | 0.0 | 0.0 | 0.00 | 0.00 | 0.00 | 45 | 1013.6 | |
| 20260506083617 | 61 | 296 | 1.0 | 2.0 | 0.00 | 0.00 | 0.00 | 44 | 1013.7 |
| 20260506082617 | 62 | 297 | 0.0 | 2.0 | 0.00 | 0.00 | 0.00 | 43 | 1013.7 |
| 20260506081616 | 62 | 262 | 4.0 | 6.0 | 0.00 | 0.00 | 0.00 | 43 | 1013.6 |
| 20260506080617 | 62 | 266 | 1.0 | 2.0 | 0.00 | 0.00 | 0.00 | 43 | 1013.6 |
| 20260506072617 | 63 | 274 | 6.0 | 9.0 | 0.00 | 0.00 | 0.00 | 41 | 1013.4 |
| 20260506071617 | 63 | 264 | 5.0 | 5.0 | 0.00 | 0.00 | 0.00 | 40 | 1013.4 |
| 20260506071517 | 63 | 253 | 5.0 | 6.0 | 0.00 | 0.00 | 0.00 | 41 | 1013.4 |
| 20260506070517 | 63 | 267 | 4.0 | 5.0 | 0.00 | 0.00 | 0.00 | 40 | 1013.5 |
| 20260506061617 | 64 | 257 | 5.0 | 6.0 | 0.00 | 0.00 | 0.00 | 38 | 1013.2 |
| 20260506060616 | 65 | 270 | 5.0 | 7.0 | 0.00 | 0.00 | 0.00 | 38 | 1013.2 |
| 20260506050617 | 66 | 283 | 9.0 | 12.0 | 0.00 | 0.00 | 0.00 | 37 | 1012.8 |
| 20260506044617 | 67 | 293 | 6.0 | 7.0 | 0.00 | 0.00 | 0.00 | 37 | 1012.5 |
| 20260506043616 | 67 | 281 | 5.0 | 7.0 | 0.00 | 0.00 | 0.00 | 37 | 1012.4 |
| 20260506042617 | 68 | 285 | 6.0 | 7.0 | 0.00 | 0.00 | 0.00 | 36 | 1012.2 |
| 20260506041617 | 68 | 295 | 6.0 | 8.0 | 0.00 | 0.00 | 0.00 | 35 | 1012.0 |
| 20260506035616 | 69 | 295 | 6.0 | 7.0 | 0.00 | 0.00 | 0.00 | 34 | 1011.7 |
| 20260506034616 | 70 | 304 | 9.0 | 13.0 | 0.00 | 0.00 | 0.00 | 34 | 1011.5 |
| 20260506033617 | 70 | 297 | 8.0 | 13.0 | 0.00 | 0.00 | 0.00 | 33 | 1011.4 |
| 20260506032616 | 70 | 295 | 9.0 | 14.0 | 0.00 | 0.00 | 0.00 | 33 | 1011.2 |
| 20260506031616 | 71 | 287 | 8.0 | 11.0 | 0.00 | 0.00 | 0.00 | 31 | 1011.1 |
| 20260506030617 | 71 | 279 | 8.0 | 10.0 | 0.00 | 0.00 | 0.00 | 30 | 1010.9 |
| 20260506025616 | 72 | 290 | 6.0 | 8.0 | 0.00 | 0.00 | 0.00 | 30 | 1010.6 |
| 20260506024617 | 72 | 280 | 5.0 | 6.0 | 0.00 | 0.00 | 0.00 | 30 | 1010.4 |
| 20260506023617 | 72 | 288 | 7.0 | 10.0 | 0.00 | 0.00 | 0.00 | 30 | 1010.3 |
| 20260506022617 | 73 | 272 | 5.0 | 8.0 | 0.00 | 0.00 | 0.00 | 30 | 1010.1 |
| 20260506021617 | 73 | 279 | 7.0 | 10.0 | 0.00 | 0.00 | 0.00 | 29 | 1010.0 |
| 20260506020616 | 74 | 268 | 9.0 | 12.0 | 0.00 | 0.00 | 0.00 | 29 | 1009.7 |
| 20260506015617 | 74 | 280 | 7.0 | 10.0 | 0.00 | 0.00 | 0.00 | 28 | 1009.6 |
| 20260506014634 | 75 | 267 | 10.0 | 13.0 | 0.00 | 0.00 | 0.00 | 28 | 1009.5 |
| 20260506013616 | 75 | 284 | 9.0 | 14.0 | 0.00 | 0.00 | 0.00 | 28 | 1009.5 |
| 20260506012617 | 76 | 258 | 6.0 | 9.0 | 0.00 | 0.00 | 0.00 | 27 | 1009.4 |
| 20260506011616 | 76 | 254 | 7.0 | 9.0 | 0.00 | 0.00 | 0.00 | 28 | 1009.3 |
| 20260506010616 | 77 | 253 | 10.0 | 14.0 | 0.00 | 0.00 | 0.00 | 27 | 1009.3 |
| 20260506005617 | 77 | 283 | 8.0 | 11.0 | 0.00 | 0.00 | 0.00 | 27 | 1009.3 |
| 20260506004617 | 78 | 294 | 8.0 | 10.0 | 0.00 | 0.00 | 0.00 | 27 | 1009.2 |
| 20260506003617 | 78 | 264 | 9.0 | 12.0 | 0.00 | 0.00 | 0.00 | 27 | 1009.2 |
| 20260506002617 | 78 | 266 | 8.0 | 10.0 | 0.00 | 0.00 | 0.00 | 27 | 1009.3 |
| 20260506001616 | 78 | 256 | 9.0 | 11.0 | 0.00 | 0.00 | 0.00 | 27 | 1009.3 |
| 20260506000617 | 80 | 229 | 8.0 | 11.0 | 0.00 | 0.00 | 0.00 | 25 | 1009.2 |
| 20260505234616 | 78 | 276 | 9.0 | 12.0 | 0.00 | 0.00 | 0.00 | 27 | 1009.3 |
| 20260505233616 | 79 | 310 | 9.0 | 12.0 | 0.00 | 0.00 | 0.00 | 25 | 1009.2 |
| 20260505232622 | 78 | 253 | 5.0 | 7.0 | 0.00 | 0.00 | 0.00 | 27 | 1009.3 |
| 20260505231616 | 80 | 228 | 5.0 | 6.0 | 0.00 | 0.00 | 0.00 | 25 | 1009.2 |
| 20260505230617 | 79 | 269 | 8.0 | 11.0 | 0.00 | 0.00 | 0.00 | 27 | 1009.3 |
| 20260505225617 | 78 | 287 | 5.0 | 7.0 | 0.00 | 0.00 | 0.00 | 27 | 1009.4 |
| 20260505224617 | 79 | 279 | 10.0 | 12.0 | 0.00 | 0.00 | 0.00 | 26 | 1009.5 |
| 20260505223616 | 77 | 314 | 5.0 | 7.0 | 0.00 | 0.00 | 0.00 | 28 | 1009.5 |
| 20260505222617 | 77 | 327 | 4.0 | 6.0 | 0.00 | 0.00 | 0.00 | 28 | 1009.6 |
| 20260505221617 | 78 | 293 | 8.0 | 10.0 | 0.00 | 0.00 | 0.00 | 28 | 1009.8 |
| 20260505220616 | 79 | 252 | 10.0 | 13.0 | 0.00 | 0.00 | 0.00 | 27 | 1010.0 |
| 20260505215617 | 80 | 235 | 6.0 | 7.0 | 0.00 | 0.00 | 0.00 | 27 | 1010.0 |
| 20260505214616 | 77 | 257 | 8.0 | 11.0 | 0.00 | 0.00 | 0.00 | 28 | 1010.2 |
| 20260505213617 | 76 | 219 | 3.0 | 4.0 | 0.00 | 0.00 | 0.00 | 30 | 1010.3 |
| 20260505211617 | 77 | 308 | 8.0 | 10.0 | 0.00 | 0.00 | 0.00 | 29 | 1010.6 |
| 20260505210617 | 77 | 292 | 6.0 | 8.0 | 0.00 | 0.00 | 0.00 | 29 | 1010.8 |
| 20260505205617 | 79 | 257 | 10.0 | 13.0 | 0.00 | 0.00 | 0.00 | 27 | 1010.8 |
| 20260505204617 | 78 | 314 | 6.0 | 10.0 | 0.00 | 0.00 | 0.00 | 28 | 1010.8 |
| 20260505203617 | 77 | 276 | 10.0 | 14.0 | 0.00 | 0.00 | 0.00 | 29 | 1010.9 |
| 20260505202616 | 77 | 259 | 13.0 | 17.0 | 0.00 | 0.00 | 0.00 | 29 | 1010.9 |
| 20260505201617 | 80 | 220 | 7.0 | 10.0 | 0.00 | 0.00 | 0.00 | 25 | 1011.0 |
| 20260505200616 | 80 | 224 | 7.0 | 10.0 | 0.00 | 0.00 | 0.00 | 26 | 1011.0 |
| 20260505195617 | 79 | 234 | 5.0 | 7.0 | 0.00 | 0.00 | 0.00 | 28 | 1011.1 |
| 20260505194517 | 77 | 275 | 8.0 | 10.0 | 0.00 | 0.00 | 0.00 | 29 | 1011.3 |
| 20260505193516 | 76 | 244 | 5.0 | 6.0 | 0.00 | 0.00 | 0.00 | 30 | 1011.4 |
| 20260505192517 | 76 | 248 | 6.0 | 9.0 | 0.00 | 0.00 | 0.00 | 31 | 1011.5 |
| 20260505191517 | 76 | 221 | 7.0 | 14.0 | 0.00 | 0.00 | 0.00 | 32 | 1011.6 |
| 20260505190517 | 75 | 249 | 3.0 | 4.0 | 0.00 | 0.00 | 0.00 | 33 | 1011.7 |
| 20260505185516 | 76 | 305 | 6.0 | 9.0 | 0.00 | 0.00 | 0.00 | 31 | 1011.7 |
| 20260505184517 | 75 | 256 | 5.0 | 6.0 | 0.00 | 0.00 | 0.00 | 33 | 1011.8 |
| 20260505183516 | 75 | 258 | 8.0 | 10.0 | 0.00 | 0.00 | 0.00 | 33 | 1011.9 |
| 20260505182517 | 75 | 271 | 7.0 | 9.0 | 0.00 | 0.00 | 0.00 | 34 | 1011.9 |
| 20260505181517 | 74 | 312 | 6.0 | 9.0 | 0.00 | 0.00 | 0.00 | 35 | 1011.9 |
| 20260505180517 | 75 | 266 | 7.0 | 11.0 | 0.00 | 0.00 | 0.00 | 35 | 1012.0 |
| 20260505175517 | 74 | 252 | 5.0 | 8.0 | 0.00 | 0.00 | 0.00 | 36 | 1012.0 |
| 20260505174517 | 74 | 293 | 6.0 | 10.0 | 0.00 | 0.00 | 0.00 | 35 | 1012.0 |
| 20260505173517 | 74 | 287 | 10.0 | 13.0 | 0.00 | 0.00 | 0.00 | 35 | 1012.0 |
| 20260505172517 | 73 | 251 | 6.0 | 10.0 | 0.00 | 0.00 | 0.00 | 36 | 1012.0 |
| 20260505171517 | 72 | 266 | 10.0 | 13.0 | 0.00 | 0.00 | 0.00 | 37 | 1012.0 |
| 20260505170517 | 72 | 289 | 8.0 | 11.0 | 0.00 | 0.00 | 0.00 | 36 | 1011.9 |
| 20260505165516 | 72 | 255 | 9.0 | 13.0 | 0.00 | 0.00 | 0.00 | 37 | 1011.9 |
| 20260505164517 | 72 | 273 | 7.0 | 10.0 | 0.00 | 0.00 | 0.00 | 38 | 1011.8 |
| 20260505163517 | 71 | 277 | 10.0 | 12.0 | 0.00 | 0.00 | 0.00 | 37 | 1012.0 |
| 20260505162517 | 72 | 247 | 12.0 | 17.0 | 0.00 | 0.00 | 0.00 | 38 | 1011.8 |
| 20260505161517 | 72 | 254 | 10.0 | 15.0 | 0.00 | 0.00 | 0.00 | 39 | 1011.8 |
| 20260505161318 | 71 | 299 | 9.0 | 14.0 | 0.00 | 0.00 | 0.00 | 39 | 1011.8 |
| 20260505160318 | 71 | 296 | 11.0 | 14.0 | 0.00 | 0.00 | 0.00 | 39 | 1011.8 |
| 20260505153317 | 69 | 274 | 9.0 | 12.0 | 0.00 | 0.00 | 0.00 | 43 | 1011.9 |
| 20260505152318 | 68 | 259 | 9.0 | 12.0 | 0.00 | 0.00 | 0.00 | 44 | 1011.9 |
| 20260505151318 | 68 | 269 | 10.0 | 13.0 | 0.00 | 0.00 | 0.00 | 44 | 1011.8 |
| 20260505140319 | 63 | 259 | 5.0 | 7.0 | 0.00 | 0.00 | 0.00 | 49 | 1011.6 |